User: anonymous   Login
Location: Cussy
(47.0410°N, 4.6412°E)
Time: 15:56:17
(UTC+00:00)
Language:

SL-16 R/B - Orbit

View from above orbital plane
View from above orbital plane
View from above satellite
View from above satellite

Ground track
Ground track

The orbit data is extracted from the following two-line orbital elements,

1 28353U 04021B   21063.14201443 -.00000288  00000-0 -12612-3 0  9994
2 28353  71.0007 114.6849 0007596 290.9753  69.0556 14.14241063863861
Epoch (UTC): 04 March 2021 03:24:30
Eccentricity: 0.0007596
inclination: 71.0007°
perigee height: 839 km
apogee height: 850 km
right ascension of ascending node: 114.6849°
argument of perigee: 290.9753°
revolutions per day: 14.14241063
mean anomaly at epoch: 69.0556°
orbit number at epoch: 86386

The dashed part of the orbit path shows where the satellite is in the earth's shadow,  

DLR